Regional Weather Roundup
Issued by NWS

Home | Current Version | Previous Version | Text Only | Print | Product List | Glossary Off
Versions: 1 2 3 4 5 6 7 8 9 10 11 12 13 14 15 16 17 18 19 20 21 22 23 24 25 26 27 28 29 30 31 32 33 34 35 36 37 38 39 40 41 42 43 44 45 46 47 48 49 50

000
ASUS43 KLOT 260008
RWRIL

ILLINOIS REGIONAL WEATHER ROUNDUP
NATIONAL WEATHER SERVICE CHICAGO/ROMEOVILLE IL
700 PM CDT MON JUL 25 2016

NOTE: "FAIR" INDICATES FEW OR NO CLOUDS BELOW 12,000 FEET WITH NO
SIGNIFICANT WEATHER AND/OR OBSTRUCTIONS TO VISIBILITY.

* THESE STATIONS ARE NOT UNDER NWS QUALITY CONTROL. THEY ALSO MAY NOT
  REPORT WEATHER SUCH AS PRECIPITATION OR FOG.

ILZ001-002-007-009-015-016-024-260100-
NORTHWEST ILLINOIS

CITY           SKY/WX    TMP DP  RH WIND       PRES   REMARKS
MOLINE         SUNNY     84  63  49 N7        30.00S HX  85
6HR MIN TEMP:  83; 6HR MAX TEMP:  88;

STERLING*      MOSUNNY   83  67  58 N5        30.01R HX  85
SAVANNA*       SUNNY     82  63  51 N5        30.00S HX  83
$$

ILZ003-004-008-010-011-017-018-260100-
NORTH CENTRAL ILLINOIS

CITY           SKY/WX    TMP DP  RH WIND       PRES   REMARKS
ROCKFORD       MOSUNNY   84  64  50 NW6       30.01R HX  85
6HR MIN TEMP:  83; 6HR MAX TEMP:  87;

FREEPORT*      SUNNY     80  64  58 N7        30.02S HX  82
ROCHELLE*      MOSUNNY   82  67  61 NW5       30.01S HX  84
DE KALB*       SUNNY     79  69  72 NW5       30.01S HX  81
$$

ILZ005-006-012>014-019>023-260100-
NORTHEAST ILLINOIS

CITY           SKY/WX    TMP DP  RH WIND       PRES   REMARKS
CHICAGO-OHARE  PTSUNNY   83  64  52 E6        29.98R HX  84
6HR MIN TEMP:  83; 6HR MAX TEMP:  89;

CHICAGO-MIDWAY PTSUNNY   83  62  49 E9        29.98R HX  84
6HR MIN TEMP:  83; 6HR MAX TEMP:  87;

AURORA         MOSUNNY   81  72  74 CALM      30.00S HX  85
6HR MIN TEMP:  81; 6HR MAX TEMP:  86;

LANSING*       PTSUNNY   80  63  55 E7        29.99R HX  82
JOLIET*        CLOUDY    84  68  59 W7        29.98S HX  87
WAUKEGAN       SUNNY     79  61  53 SE6       29.98S HX  80
6HR MIN TEMP:  79; 6HR MAX TEMP:  86;

DUPAGE AIRPORT CLOUDY    83  65  54 W6        29.99R HX  85
6HR MIN TEMP:  83; 6HR MAX TEMP:  87;

KANKAKEE*      CLOUDY    81  71  72 W3        29.99S HX  85
WHEELING       SUNNY     81  63  54 E5        29.99S HX  82
6HR MIN TEMP:  81; 6HR MAX TEMP:  89;

MORRIS*        PTSUNNY   81  71  72 CALM      29.98S HX  85
ROMEOVILLE*    MOSUNNY   82  65  57 W6        29.99R HX  84
NORTHERLY ISL    N/A     76  69  79 CALM        N/A
$$

LMZ740>746-260100-
SOUTHERN LAKE MICHIGAN

STATION/POSITION SKY/WX   TEMP    WIND        PRES    VSBY  WAVE
                          AIR SEA DIR/SP/G                  HT/PER
                          (F)     (DEG/KT/KT) (MB)    (MI)  (FT/S)
SOUTHERN BUOY              76 75  170/  4/  6 1014.6F         1
WILMETTE HARBOR            73 69  190/  4/  4   N/A           1
HARRISON CRIB              79     130/  8/  8   N/A
BURNHAM HARBOR             76      CALM  /  4   N/A
CALUMET HARBOR             77                   N/A
BURNS HARBOR               79      80/  6/ 11 1015.9S
MICHIGAN CITY              78      20/  4/  4   N/A
MICHIGAN CITY 6N           77 76   60/  4/  4   N/A           1
ST. JOSEPH                 78 77   50/  4/  4 1015.1F         1/ 4
$$

ILZ025>027-034>036-040-047-049-050-058-095>099-260100-
WEST-CENTRAL ILLINOIS

CITY           SKY/WX    TMP DP  RH WIND       PRES   REMARKS
QUINCY         PTSUNNY   82  69  64 N8        30.00S HX  85
GALESBURG*     MOSUNNY   80  68  65 CALM      30.01S HX  83
MACOMB*        CLOUDY    80  70  71 N5        30.03S HX  83
JACKSONVILLE*  PTSUNNY   81  73  75 N7        29.99R HX  85
PITTSFIELD*    PTSUNNY   81  72  75 N6        30.01S HX  85
$$

ILZ028>032-037-038-041>044-048-051>054-059>061-260100-
CENTRAL ILLINOIS

CITY           SKY/WX    TMP DP  RH WIND       PRES   REMARKS
BLOOMINGTON    CLOUDY    80  70  71 N8        30.01R HX  83
DECATUR        CLOUDY    84  74  71 N3        29.98S HX  91
PEORIA         CLOUDY    82  71  69 N5        29.99F HX  86
6HR MIN TEMP:  82; 6HR MAX TEMP:  87;

LACON*         MOSUNNY   81  68  63 N5        29.99S HX  84
LINCOLN*       CLOUDY    82  74  76 N5        29.99R HX  89
SPRINGFIELD    CLOUDY    84  74  71 N6        29.99S HX  91
6HR MIN TEMP:  82; 6HR MAX TEMP:  87;

TAYLORVILLE    MOSUNNY   79  75  89 MISG      29.99R HX  83
6HR MIN TEMP:  79; 6HR MAX TEMP:  84;

$$

ILZ033-039-045-046-055>057-062-063-260100-
EAST-CENTRAL ILLINOIS

CITY           SKY/WX    TMP DP  RH WIND       PRES   REMARKS
CHAMPAIGN      CLOUDY    82  72  71 N7        29.99S HX  87
MATTOON        PTSUNNY   83  71  67 NE3       29.98R HX  87
PARIS*         CLOUDY    82  76  81 CALM      29.99R HX  88
$$

ILZ079-100>102-260100-
SOUTHWEST ILLINOIS

CITY           SKY/WX    TMP DP  RH WIND       PRES   REMARKS
ALTON          MOSUNNY   81  75  83 N6        29.98R HX  86
BELLEVILLE     PTSUNNY   85  78  77 NE5       29.95R HX  97
CAHOKIA*       MOSUNNY   85  73  67 NE6       29.96R HX  91
SPARTA*        CLOUDY    84  76  75 NE3       29.97R HX  93
$$

ILZ064>066-069>071-074>076-080>082-084>086-088>090-092>094-260100-
SOUTH-CENTRAL ILLINOIS

CITY           SKY/WX    TMP DP  RH WIND       PRES   REMARKS
CARBONDALE     CLOUDY    81  74  79 SE5       29.97R HX  86
6HR MIN TEMP:  81; 6HR MAX TEMP:  92;

CAIRO*         CLOUDY    80  76  89 SE3       29.95S HX  85
EFFINGHAM*     CLOUDY    85  75  74 NE3       29.99R HX  93
MARION         CLOUDY    81  77  89 CALM      29.97R HX  88
MT. VERNON     CLOUDY    81  72  74 CALM      29.97R HX  84
CENTRALIA*     CLOUDY    84  80  86 E5        29.96R HX  97
SALEM*         CLOUDY    84  78  83 E6        29.97R HX  94
METROPOLIS*    CLOUDY    81  76  83 CALM      29.98R HX  87
$$

ILZ067-068-072-073-078-083-087-091-260100-
SOUTHEAST ILLINOIS

CITY           SKY/WX    TMP DP  RH WIND       PRES   REMARKS
LAWRENCEVILLE  LGT RAIN  79  76  90 NE3       29.97R HX  83
FLORA*         CLOUDY    82  77  86 CALM      29.98R HX  89
FAIRFIELD*     CLOUDY    77  76  96 CALM      29.96R
HARRISBURG*    MOSUNNY   74  74  99 CALM      29.98R
ROBINSON*      CLOUDY    81  77  86 NE3       29.97R HX  88
CARMI*         LGT RAIN  77  76  96 CALM      29.96S
$$

ABBREVIATIONS USED IN REMARKS
   TC - TEMPERATURE IN CELSIUS
  WCI - WIND CHILL INDEX
   HX - HEAT INDEX
  VSB - VISIBILITY
$$





USA.gov is the U.S. government's official web portal to all federal, state and local government web resources and services.